Regional Weather Roundup
Issued by NWS

Home | Current Version | Previous Version | Text Only | Print | Product List | Glossary Off
Versions: 1 2 3 4 5 6 7 8 9 10 11 12 13 14 15 16 17 18 19 20 21 22 23 24 25 26 27 28 29 30 31 32 33 34 35 36 37 38 39 40 41 42 43 44 45 46 47 48 49 50

000
ASUS45 KBOI 292210
RWRID
WEATHER ROUNDUP FOR IDAHO
NATIONAL WEATHER SERVICE BOISE ID
400 PM MDT TUE JUL 29 2014

NOTE: "FAIR" INDICATES FEW OR NO CLOUDS BELOW 12000 FEET
WITH NO SIGNIFICANT WEATHER AND/OR OBSTRUCTIONS TO VISIBILITY

IDZ012-014-292300-
SOUTHWEST IDAHO


CITY           SKY/WX    TMP DP  RH WIND       PRES   REMARKS
BOISE          PTSUNNY   93  51  23 W13       30.00F HX  90
CALDWELL       PTSUNNY   95  54  24 W8        30.02F HX  93
MOUNTAIN HOME  MOSUNNY   94  48  20 NW5       30.03F HX  90
$$

IDZ016-017-292300-
SOUTHCENTRAL IDAHO


CITY           SKY/WX    TMP DP  RH WIND       PRES   REMARKS
BURLEY         PTSUNNY   82  52  35 E12       30.14F
JEROME         PTSUNNY   87  52  29 E15G22    30.13F
TWIN FALLS     MOSUNNY   90  50  25 NE13      30.13F
$$

IDZ019>023-292300-
SOUTHEAST IDAHO


CITY           SKY/WX    TMP DP  RH WIND       PRES   REMARKS
IDAHO FALLS    CLOUDY    73  58  59 VRB5      30.23F
POCATELLO      PTSUNNY   77  58  51 E7        30.19F
REXBURG        CLOUDY    72  57  59 S3        30.23F
$$

IDZ006-010-011-018-031-032-292300-
CENTRAL IDAHO MOUNTAINS


CITY           SKY/WX    TMP DP  RH WIND       PRES   REMARKS
MCCALL         PTSUNNY   84  42  22 SE10      30.19F
HAILEY         PTSUNNY   81  52  36 SE8       30.23F
STANLEY          N/A     77  38  24 S12       30.32F
SALMON         PTSUNNY  N/A N/A N/A SE22G32   30.06S
CHALLIS        CLOUDY    85  37  18 W10       30.18F
$$

IDZ002-004-006-007-026-292300-
NORTHERN IDAHO


CITY           SKY/WX    TMP DP  RH WIND       PRES   REMARKS
LEWISTON       LGT RAIN 104  39  10 VRB6      29.95F HX  98
LOWELL           N/A    106  44  12 CALM      29.93F HX 101
COEUR D`ALENE  SUNNY     97  37  12 W3        30.01F HX  92
MULLAN PASS    MOSUNNY   79  38  22 CALM      30.32F
$$



USA.gov is the U.S. government's official web portal to all federal, state and local government web resources and services.